| time (UTC) | temp F | wind direction | speed MPH | gust MPH | rain 1hr in | rain 24hr in | rain mn in | humidity % | barometer mb |
| 20260504190215 | 61 | 162 | 3.0 | 12.0 | 0.00 | 0.00 | 0.00 | 82 | 1013.7 |
| 20260504185714 | 61 | 134 | 8.0 | 12.0 | 0.00 | 0.00 | 0.00 | 81 | 1013.7 |
| 20260504185215 | 61 | 234 | 3.0 | 10.0 | 0.00 | 0.00 | 0.00 | 83 | 1013.6 |
| 20260504184715 | 60 | 168 | 2.0 | 10.0 | 0.00 | 0.00 | 0.00 | 83 | 1013.7 |
| 20260504184215 | 60 | 162 | 2.0 | 14.0 | 0.00 | 0.00 | 0.00 | 83 | 1013.6 |
| 20260504183714 | 60 | 122 | 6.0 | 14.0 | 0.00 | 0.00 | 0.00 | 83 | 1013.7 |
| 20260504183214 | 59 | 104 | 5.0 | 12.0 | 0.00 | 0.00 | 0.00 | 83 | 1013.7 |
| 20260504182714 | 60 | 208 | 3.0 | 7.0 | 0.00 | 0.00 | 0.00 | 83 | 1013.7 |
| 20260504181714 | 59 | 111 | 11.0 | 12.0 | 0.00 | 0.00 | 0.00 | 84 | 1013.6 |
| 20260504181215 | 59 | 155 | 2.0 | 10.0 | 0.00 | 0.00 | 0.00 | 83 | 1013.6 |
| 20260504180714 | 60 | 208 | 3.0 | 10.0 | 0.00 | 0.00 | 0.00 | 85 | 1013.6 |
| 20260504180215 | 59 | 115 | 2.0 | 10.0 | 0.00 | 0.00 | 0.00 | 85 | 1013.5 |
| 20260504175714 | 59 | 193 | 6.0 | 7.0 | 0.00 | 0.00 | 0.00 | 85 | 1013.6 |
| 20260504175214 | 59 | 198 | 2.0 | 7.0 | 0.00 | 0.00 | 0.00 | 86 | 1013.6 |
| 20260504174715 | 58 | 192 | 5.0 | 7.0 | 0.00 | 0.00 | 0.00 | 86 | 1013.6 |
| 20260504174214 | 58 | 191 | 3.0 | 7.0 | 0.00 | 0.00 | 0.00 | 86 | 1013.4 |
| 20260504173714 | 58 | 243 | 3.0 | 7.0 | 0.00 | 0.00 | 0.00 | 87 | 1013.4 |
| 20260504173214 | 58 | 153 | 2.0 | 7.0 | 0.00 | 0.00 | 0.00 | 87 | 1013.3 |
| 20260504172714 | 58 | 181 | 6.0 | 7.0 | 0.00 | 0.00 | 0.00 | 87 | 1013.3 |
| 20260504172215 | 57 | 214 | 3.0 | 7.0 | 0.00 | 0.00 | 0.00 | 88 | 1013.3 |
| 20260504171214 | 57 | 153 | 2.0 | 14.0 | 0.00 | 0.00 | 0.00 | 89 | 1013.1 |
| 20260504170714 | 57 | 160 | 3.0 | 14.0 | 0.00 | 0.00 | 0.00 | 89 | 1013.3 |
| 20260504170214 | 57 | 120 | 5.0 | 15.0 | 0.00 | 0.00 | 0.00 | 89 | 1013.2 |
| 20260504150213 | 55 | 165 | 2.0 | 12.0 | 0.00 | 0.00 | 0.00 | 93 | 1012.6 |
| 20260504141211 | 54 | 204 | 5.0 | 14.0 | 0.00 | 0.00 | 0.00 | 95 | 1012.2 |
| 20260504140711 | 54 | 152 | 2.0 | 3.0 | 0.00 | 0.00 | 0.00 | 95 | 1012.1 |
| 20260504140212 | 54 | 327 | 2.0 | 10.0 | 0.00 | 0.00 | 0.00 | 95 | 1012.1 |
| 20260504130710 | 54 | 191 | 0.0 | 19.0 | 0.00 | 0.00 | 0.00 | 96 | 1011.8 |
| 20260504120209 | 53 | 119 | 8.0 | 12.0 | 0.00 | 0.00 | 0.00 | 97 | 1011.5 |
| 20260504110708 | 53 | 131 | 5.0 | 24.0 | 0.00 | 0.00 | 0.00 | 97 | 1011.1 |
| 20260504110208 | 53 | 188 | 3.0 | 24.0 | 0.00 | 0.00 | 0.00 | 97 | 1011.1 |
| 20260504100208 | 53 | 109 | 21.0 | 22.0 | 0.00 | 0.00 | 0.00 | 96 | 1011.1 |
| 20260504080706 | 54 | 233 | 0.0 | 14.0 | 0.00 | 0.00 | 0.00 | 92 | 1010.2 |
| 20260504080206 | 54 | 146 | 13.0 | 14.0 | 0.00 | 0.00 | 0.00 | 92 | 1010.3 |
| 20260504070235 | 56 | 139 | 3.0 | 14.0 | 0.00 | 0.00 | 0.00 | 86 | 1009.6 |
| 20260504060233 | 57 | 296 | 2.0 | 2.0 | 0.00 | 0.00 | 0.00 | 83 | 1009.0 |
| 20260504050734 | 58 | 313 | 0.0 | 2.0 | 0.00 | 0.00 | 0.00 | 78 | 1009.0 |
| 20260504050232 | 59 | 285 | 0.0 | 2.0 | 0.00 | 0.00 | 0.00 | 78 | 1009.1 |
| 20260504045233 | 59 | 138 | 0.0 | 0.0 | 0.00 | 0.00 | 0.00 | 76 | 1009.0 |
| 20260504044733 | 59 | 265 | 0.0 | 0.0 | 0.00 | 0.00 | 0.00 | 75 | 1009.0 |
| 20260504044232 | 59 | 304 | 0.0 | 0.0 | 0.00 | 0.00 | 0.00 | 74 | 1008.9 |
| 20260504043232 | 60 | 315 | 2.0 | 2.0 | 0.00 | 0.00 | 0.00 | 72 | 1008.8 |
| 20260504042732 | 60 | 319 | 0.0 | 0.0 | 0.00 | 0.00 | 0.00 | 72 | 1008.8 |
| 20260504042232 | 60 | 9 | 0.0 | 2.0 | 0.00 | 0.00 | 0.00 | 71 | 1008.8 |
| 20260504041732 | 60 | 339 | 0.0 | 3.0 | 0.00 | 0.00 | 0.00 | 71 | 1008.9 |
| 20260504041232 | 60 | 338 | 2.0 | 5.0 | 0.00 | 0.00 | 0.00 | 71 | 1009.0 |
| 20260504040732 | 60 | 330 | 5.0 | 5.0 | 0.00 | 0.00 | 0.00 | 72 | 1008.9 |
| 20260504035731 | 59 | 14 | 0.0 | 2.0 | 0.00 | 0.00 | 0.00 | 74 | 1008.8 |
| 20260504035232 | 60 | 293 | 0.0 | 0.0 | 0.00 | 0.00 | 0.00 | 73 | 1008.7 |
| 20260504034232 | 61 | 293 | 0.0 | 0.0 | 0.00 | 0.00 | 0.00 | 70 | 1008.5 |
| 20260504033731 | 61 | 293 | 0.0 | 2.0 | 0.00 | 0.00 | 0.00 | 69 | 1008.5 |
| 20260504033231 | 62 | 285 | 0.0 | 2.0 | 0.00 | 0.00 | 0.00 | 68 | 1008.4 |
| 20260504032231 | 63 | 2 | 2.0 | 5.0 | 0.00 | 0.00 | 0.00 | 66 | 1008.5 |
| 20260504031731 | 63 | 345 | 0.0 | 5.0 | 0.00 | 0.00 | 0.00 | 65 | 1008.5 |
| 20260504031231 | 63 | 325 | 2.0 | 7.0 | 0.00 | 0.00 | 0.00 | 64 | 1008.5 |
| 20260504030732 | 64 | 1 | 6.0 | 7.0 | 0.00 | 0.00 | 0.00 | 63 | 1008.4 |
| 20260504025731 | 65 | 17 | 5.0 | 9.0 | 0.00 | 0.00 | 0.00 | 61 | 1008.4 |
| 20260504025231 | 65 | 29 | 0.0 | 9.0 | 0.00 | 0.00 | 0.00 | 60 | 1008.4 |
| 20260504024230 | 66 | 355 | 5.0 | 10.0 | 0.00 | 0.00 | 0.00 | 59 | 1008.4 |
| 20260504022730 | 66 | 23 | 5.0 | 10.0 | 0.00 | 0.00 | 0.00 | 57 | 1008.5 |
| 20260504021730 | 66 | 333 | 3.0 | 15.0 | 0.00 | 0.00 | 0.00 | 56 | 1008.5 |
| 20260504020730 | 66 | 32 | 5.0 | 24.0 | 0.00 | 0.00 | 0.00 | 56 | 1008.5 |
| 20260504015729 | 65 | 3 | 11.0 | 20.0 | 0.00 | 0.00 | 0.00 | 57 | 1008.5 |
| 20260504015230 | 65 | 349 | 8.0 | 20.0 | 0.00 | 0.00 | 0.00 | 58 | 1008.6 |
| 20260504014730 | 65 | 326 | 3.0 | 14.0 | 0.00 | 0.00 | 0.00 | 62 | 1008.7 |
| 20260504014230 | 64 | 324 | 3.0 | 14.0 | 0.00 | 0.00 | 0.00 | 63 | 1008.8 |
| 20260504013730 | 64 | 346 | 5.0 | 20.0 | 0.00 | 0.00 | 0.00 | 64 | 1008.7 |
| 20260504013230 | 64 | 305 | 8.0 | 20.0 | 0.00 | 0.00 | 0.00 | 64 | 1008.8 |
| 20260504012729 | 65 | 333 | 6.0 | 15.0 | 0.00 | 0.00 | 0.00 | 65 | 1008.6 |
| 20260504012229 | 65 | 345 | 5.0 | 17.0 | 0.00 | 0.00 | 0.00 | 65 | 1008.7 |
| 20260504011230 | 65 | 347 | 6.0 | 22.0 | 0.00 | 0.00 | 0.00 | 65 | 1008.9 |
| 20260504010229 | 65 | 345 | 3.0 | 22.0 | 0.00 | 0.00 | 0.00 | 62 | 1008.9 |
| 20260504005729 | 66 | 350 | 13.0 | 22.0 | 0.00 | 0.00 | 0.00 | 61 | 1008.9 |
| 20260504005229 | 66 | 292 | 3.0 | 20.0 | 0.00 | 0.00 | 0.00 | 60 | 1009.1 |
| 20260504003728 | 66 | 63 | 14.0 | 19.0 | 0.00 | 0.00 | 0.00 | 60 | 1009.0 |
| 20260504002729 | 66 | 339 | 13.0 | 20.0 | 0.00 | 0.00 | 0.00 | 61 | 1009.0 |
| 20260504002228 | 66 | 2 | 10.0 | 31.0 | 0.00 | 0.00 | 0.00 | 61 | 1009.0 |
| 20260504001728 | 66 | 29 | 29.0 | 31.0 | 0.00 | 0.00 | 0.00 | 60 | 1009.0 |
| 20260504001229 | 67 | 360 | 24.0 | 26.0 | 0.00 | 0.00 | 0.00 | 60 | 1009.1 |
| 20260504000728 | 67 | 309 | 3.0 | 22.0 | 0.00 | 0.00 | 0.00 | 62 | 1009.0 |
| 20260503235228 | 67 | 302 | 3.0 | 27.0 | 0.00 | 0.00 | 0.00 | 60 | 1009.1 |
| 20260503234227 | 67 | 360 | 19.0 | 26.0 | 0.00 | 0.00 | 0.00 | 60 | 1009.2 |
| 20260503233227 | 67 | 316 | 10.0 | 20.0 | 0.00 | 0.00 | 0.00 | 59 | 1009.3 |
| 20260503232728 | 67 | 328 | 19.0 | 26.0 | 0.00 | 0.00 | 0.00 | 61 | 1009.4 |
| 20260503232228 | 67 | 345 | 18.0 | 26.0 | 0.00 | 0.00 | 0.00 | 59 | 1009.3 |
| 20260503231727 | 67 | 328 | 19.0 | 24.0 | 0.00 | 0.00 | 0.00 | 59 | 1009.5 |
| 20260503231227 | 67 | 314 | 11.0 | 24.0 | 0.00 | 0.00 | 0.00 | 58 | 1009.5 |
| 20260503230727 | 67 | 311 | 14.0 | 19.0 | 0.00 | 0.00 | 0.00 | 59 | 1009.5 |
| 20260503230227 | 68 | 315 | 14.0 | 15.0 | 0.00 | 0.00 | 0.00 | 59 | 1009.5 |
| 20260503225727 | 68 | 32 | 3.0 | 17.0 | 0.00 | 0.00 | 0.00 | 59 | 1009.5 |
| 20260503225227 | 68 | 323 | 3.0 | 19.0 | 0.00 | 0.00 | 0.00 | 58 | 1009.7 |
| 20260503224727 | 68 | 298 | 8.0 | 19.0 | 0.00 | 0.00 | 0.00 | 58 | 1009.6 |
| 20260503224227 | 68 | 275 | 10.0 | 29.0 | 0.00 | 0.00 | 0.00 | 57 | 1009.7 |
| 20260503223226 | 69 | 68 | 19.0 | 24.0 | 0.00 | 0.00 | 0.00 | 56 | 1009.8 |
| 20260503222226 | 70 | 293 | 6.0 | 22.0 | 0.00 | 0.00 | 0.00 | 53 | 1009.9 |
| 20260503221726 | 71 | 8 | 19.0 | 22.0 | 0.00 | 0.00 | 0.00 | 52 | 1009.9 |
| 20260503221226 | 72 | 314 | 10.0 | 17.0 | 0.00 | 0.00 | 0.00 | 52 | 1009.9 |
| 20260503220726 | 72 | 359 | 6.0 | 22.0 | 0.00 | 0.00 | 0.00 | 54 | 1009.9 |
| 20260503220226 | 72 | 39 | 10.0 | 22.0 | 0.00 | 0.00 | 0.00 | 51 | 1010.0 |
| 20260503215225 | 72 | 15 | 13.0 | 20.0 | 0.00 | 0.00 | 0.00 | 52 | 1010.1 |
| 20260503214725 | 73 | 37 | 5.0 | 20.0 | 0.00 | 0.00 | 0.00 | 52 | 1010.2 |
| 20260503214225 | 73 | 359 | 8.0 | 19.0 | 0.00 | 0.00 | 0.00 | 51 | 1010.1 |
| 20260503213726 | 73 | 326 | 5.0 | 22.0 | 0.00 | 0.00 | 0.00 | 53 | 1010.2 |
| 20260503213225 | 73 | 14 | 14.0 | 22.0 | 0.00 | 0.00 | 0.00 | 52 | 1010.2 |
| 20260503212726 | 73 | 325 | 8.0 | 12.0 | 0.00 | 0.00 | 0.00 | 53 | 1010.2 |
| 20260503212226 | 74 | 331 | 3.0 | 12.0 | 0.00 | 0.00 | 0.00 | 52 | 1010.2 |
| 20260503211726 | 74 | 342 | 3.0 | 14.0 | 0.00 | 0.00 | 0.00 | 51 | 1010.2 |
| 20260503211225 | 74 | 296 | 6.0 | 22.0 | 0.00 | 0.00 | 0.00 | 51 | 1010.2 |
| 20260503210725 | 74 | 4 | 10.0 | 22.0 | 0.00 | 0.00 | 0.00 | 53 | 1010.3 |
| 20260503210226 | 74 | 299 | 5.0 | 22.0 | 0.00 | 0.00 | 0.00 | 53 | 1010.2 |
| 20260503205725 | 75 | 299 | 5.0 | 22.0 | 0.00 | 0.00 | 0.00 | 51 | 1010.3 |
| 20260503205225 | 75 | 296 | 8.0 | 10.0 | 0.00 | 0.00 | 0.00 | 51 | 1010.3 |
| 20260503204725 | 77 | 294 | 5.0 | 10.0 | 0.00 | 0.00 | 0.00 | 49 | 1010.3 |
| 20260503203724 | 81 | 290 | 5.0 | 10.0 | 0.00 | 0.00 | 0.00 | 44 | 1010.3 |
| 20260503202725 | 85 | 304 | 6.0 | 10.0 | 0.00 | 0.00 | 0.00 | 38 | 1010.3 |
| 20260503202224 | 86 | 36 | 3.0 | 10.0 | 0.00 | 0.00 | 0.00 | 35 | 1010.3 |
| 20260503201224 | 86 | 346 | 3.0 | 5.0 | 0.00 | 0.00 | 0.00 | 36 | 1010.5 |
| 20260503200724 | 85 | 135 | 2.0 | 9.0 | 0.00 | 0.00 | 0.00 | 38 | 1010.5 |
| 20260503200224 | 84 | 18 | 3.0 | 12.0 | 0.00 | 0.00 | 0.00 | 38 | 1010.6 |
| 20260503195725 | 84 | 359 | 5.0 | 12.0 | 0.00 | 0.00 | 0.00 | 37 | 1010.6 |
| 20260503194724 | 84 | 15 | 3.0 | 9.0 | 0.00 | 0.00 | 0.00 | 36 | 1010.9 |
| 20260503193724 | 84 | 319 | 6.0 | 7.0 | 0.00 | 0.00 | 0.00 | 39 | 1010.9 |
| 20260503192724 | 83 | 347 | 8.0 | 14.0 | 0.00 | 0.00 | 0.00 | 39 | 1011.0 |
| 20260503192223 | 83 | 14 | 5.0 | 14.0 | 0.00 | 0.00 | 0.00 | 40 | 1011.2 |
| 20260503191723 | 83 | 51 | 3.0 | 9.0 | 0.00 | 0.00 | 0.00 | 41 | 1011.1 |
| 20260503190723 | 82 | 316 | 3.0 | 14.0 | 0.00 | 0.00 | 0.00 | 40 | 1011.3 |